Mason City, IA

11:39 PM CST on December 12, 2017 (GMT -0600)
Mason City Municipal

Weather History for KMCW - April, 2013

Change the Weather History Date:

Monday, April 22, 2013

  Actual Average Record
Temperature  
Mean Temperature 42 °F 50 °F  
Max Temperature 50 °F 62 °F 93 °F (1980)
Min Temperature 33 °F 38 °F 21 °F (1936)
Degree Days  
Heating Degree Days 23 16  
Month to date heating degree days 588 445  
Since 1 July heating degree days 7386 7290  
Cooling Degree Days 0 0  
Month to date cooling degree days 0 0  
Year to date cooling degree days 0 0  
Moisture  
Dew Point 39 °F    
Average Humidity 89    
Maximum Humidity 93    
Minimum Humidity 85    
Precipitation  
Precipitation 0.50 in 0.13 in 1.76 in (1999)
Month to date precipitation 7.23 2.64  
Year to date precipitation 12.28 6.69  
Snow  
Snow T in 0.00 in 3.40 in (1984)
Month to date snowfall 0.7 2.4  
Since 1 July snowfall 46.5 40.9  
Snow Depth 0.00 in    
Sea Level Pressure  
Sea Level Pressure 30.07 in    
Wind  
Wind Speed 12 mph (NNE)    
Max Wind Speed 25 mph    
Max Gust Speed 30 mph    
Visibility 5 miles    
Events Rain , Snow    
T = Trace of Precipitation, MM = Missing Value Source: NWS Daily Summary

Daily Weather History Graph

Daily Weather History Graph

Search for Another Location

Airport or City:

Trip Planner

Search our weather history database for the weather conditions in past years. The results will help you decide how hot, cold, wet, or windy it might be!

Date:

Astronomy

Apr. 22, 2013 Rise Set
Actual Time 6:19 AM CDT 8:04 PM CDT
Civil Twilight 5:49 AM CDT 8:34 PM CDT
Nautical Twilight 5:12 AM CDT 9:11 PM CDT
Astronomical Twilight 4:33 AM CDT 9:51 PM CDT
Moon 4:49 PM CDT (4/22) 4:20 AM CDT (4/22)
Length of Visible Light 14h 45m
Length of Day
13h 44m
Waxing Gibbous, 88% of the Moon is Illuminated
Apr 22
Waxing Gibbous
Apr 25
Full
May 2
Last Quarter
May 9
New
May 17
First Quarter

Hourly Weather History & Observations

Time (CDT) Temp. Windchill Dew Point Humidity Pressure Visibility Wind Dir Wind Speed Gust Speed Precip Events Conditions
12:10 AM 48.2 °F - 44.6 °F 87% 30.15 in 10.0 mi WSW 6.9 mph - 0.01 in   Overcast
12:53 AM 45.0 °F 40.6 °F 41.0 °F 86% 30.16 in 10.0 mi NNW 8.1 mph - 0.01 in   Overcast
1:53 AM 44.1 °F 39.0 °F 41.0 °F 89% 30.15 in 8.0 mi North 9.2 mph - N/A   Overcast
2:10 AM 42.8 °F 38.0 °F 39.2 °F 87% 30.15 in 7.0 mi North 8.1 mph - N/A   Overcast
2:53 AM 42.1 °F 38.4 °F 39.0 °F 89% 30.14 in 7.0 mi North 5.8 mph - N/A   Overcast
3:53 AM 41.0 °F 35.2 °F 37.9 °F 89% 30.12 in 6.0 mi North 9.2 mph - N/A   Overcast
4:53 AM 39.9 °F 34.5 °F 37.9 °F 93% 30.13 in 7.0 mi North 8.1 mph - N/A   Overcast
5:53 AM 39.9 °F 34.5 °F 37.9 °F 93% 30.14 in 5.0 mi North 8.1 mph - N/A   Overcast
6:53 AM 39.9 °F 33.9 °F 37.9 °F 93% 30.14 in 3.0 mi North 9.2 mph - N/A   Overcast
6:55 AM 39.2 °F 33.6 °F 37.4 °F 93% 30.13 in 2.5 mi North 8.1 mph - N/A   Overcast
7:06 AM 39.2 °F 33.0 °F 37.4 °F 93% 30.14 in 1.5 mi NNE 9.2 mph - N/A   Overcast
7:53 AM 39.9 °F 33.9 °F 37.9 °F 93% 30.15 in 0.8 mi NNE 9.2 mph - N/A   Overcast
8:11 AM 39.2 °F 32.5 °F 37.4 °F 93% 30.14 in 1.0 mi NNE 10.4 mph - N/A   Overcast
8:53 AM 39.9 °F 33.4 °F 37.9 °F 93% 30.14 in 1.8 mi NNE 10.4 mph - N/A   Overcast
9:02 AM 39.2 °F 33.0 °F 37.4 °F 93% 30.13 in 2.0 mi NNE 9.2 mph - N/A   Overcast
9:40 AM 41.0 °F 35.2 °F 39.2 °F 93% 30.13 in 3.0 mi NNE 9.2 mph - N/A   Overcast
9:53 AM 41.0 °F 33.9 °F 39.0 °F 93% 30.13 in 3.0 mi NNE 12.7 mph - N/A   Overcast
10:53 AM 42.1 °F 35.7 °F 39.9 °F 92% 30.12 in 3.0 mi NNE 11.5 mph - N/A   Overcast
11:15 AM 42.8 °F 36.6 °F 41.0 °F 93% 30.11 in 2.5 mi NE 11.5 mph - N/A   Overcast
11:24 AM 42.8 °F 37.0 °F 41.0 °F 93% 30.11 in 3.0 mi ENE 10.4 mph - N/A   Overcast
11:53 AM 44.1 °F 38.6 °F 41.0 °F 89% 30.11 in 4.0 mi ENE 10.4 mph - N/A   Overcast
12:53 PM 46.0 °F 41.9 °F 43.0 °F 89% 30.06 in 5.0 mi ENE 8.1 mph - 0.00 in Rain Light Rain
1:01 PM 46.4 °F 42.9 °F 42.8 °F 87% 30.07 in 5.0 mi East 6.9 mph - 0.00 in Rain Light Rain
1:53 PM 48.0 °F - 45.0 °F 89% 30.05 in 3.0 mi NE 5.8 mph - 0.01 in Rain Light Rain
2:02 PM 48.2 °F - 44.6 °F 87% 30.04 in 2.5 mi ENE 4.6 mph - 0.01 in Rain Light Rain
2:23 PM 48.2 °F - 46.4 °F 93% 30.03 in 2.5 mi NE 4.6 mph - 0.03 in Rain Light Rain
2:45 PM 48.2 °F - 46.4 °F 93% 30.03 in 2.5 mi ENE 4.6 mph - 0.04 in Rain Light Rain
2:53 PM 48.9 °F - 46.9 °F 93% 30.03 in 1.8 mi NE 5.8 mph - 0.05 in Rain Light Rain
3:04 PM 50.0 °F - 46.4 °F 87% 30.02 in 2.5 mi NE 6.9 mph - 0.00 in Rain Light Rain
3:12 PM 50.0 °F - 46.4 °F 87% 30.01 in 4.0 mi ENE 6.9 mph - 0.00 in   Overcast
3:16 PM 50.0 °F - 46.4 °F 87% 30.01 in 3.0 mi NE 4.6 mph - 0.00 in   Overcast
3:34 PM 50.0 °F - 46.4 °F 87% 30.01 in 2.5 mi NNE 3.5 mph - 0.00 in Rain Light Rain
3:53 PM 50.0 °F - 46.9 °F 89% 30.01 in 2.5 mi North 4.6 mph - 0.01 in Rain Light Rain
4:19 PM 50.0 °F - 48.2 °F 94% 29.98 in 2.0 mi NNE 8.1 mph - 0.01 in Rain Light Rain
4:53 PM 48.0 °F - 46.0 °F 93% 29.99 in 2.5 mi NNW 11.5 mph - 0.02 in Rain Light Rain
5:03 PM 46.4 °F 40.1 °F 44.6 °F 93% 29.97 in 4.0 mi North 15.0 mph - 0.00 in Rain Light Rain
5:53 PM 42.1 °F 33.1 °F 39.9 °F 92% 29.98 in 9.0 mi North 20.7 mph - 0.00 in Rain Light Rain
6:42 PM 39.2 °F 29.3 °F 37.4 °F 93% 29.96 in 10.0 mi North 20.7 mph - 0.08 in Rain Light Rain
6:53 PM 39.0 °F 29.0 °F 36.0 °F 89% 30.00 in 10.0 mi North 20.7 mph 26.5 mph 0.08 in Rain Light Rain
7:10 PM 37.4 °F 26.4 °F 35.6 °F 93% 29.97 in 2.0 mi North 23.0 mph - 0.07 in Rain Heavy Rain
7:23 PM 37.4 °F 27.2 °F 35.6 °F 93% 29.96 in 2.0 mi NNE 19.6 mph 25.3 mph 0.13 in Rain Rain
7:35 PM 37.4 °F 26.1 °F 35.6 °F 93% 29.98 in 4.0 mi North 24.2 mph 28.8 mph 0.15 in Rain Rain
7:50 PM 37.4 °F 27.8 °F 33.8 °F 87% 29.99 in 8.0 mi North 17.3 mph 28.8 mph 0.16 in Rain Light Rain
7:53 PM 37.0 °F 27.4 °F 34.0 °F 89% 30.02 in 8.0 mi North 17.3 mph 28.8 mph 0.16 in Rain Light Rain
8:53 PM 36.0 °F 26.0 °F 33.1 °F 89% 30.06 in 8.0 mi North 17.3 mph - 0.08 in Rain Light Rain
9:01 PM 35.6 °F 25.5 °F 32.0 °F 87% 30.06 in 7.0 mi North 17.3 mph - 0.00 in Rain Light Rain
9:17 PM 35.6 °F 25.9 °F 32.0 °F 87% 30.06 in 6.0 mi NNW 16.1 mph - 0.03 in Rain Light Rain
9:47 PM 35.6 °F 25.5 °F 32.0 °F 87% 30.04 in 7.0 mi North 17.3 mph - 0.06 in Rain Light Rain
9:53 PM 35.1 °F 24.5 °F 32.0 °F 89% 30.06 in 8.0 mi NNE 18.4 mph 24.2 mph 0.07 in Rain Light Rain
10:14 PM 33.8 °F 23.5 °F 30.2 °F 87% 30.07 in 8.0 mi North 16.1 mph 24.2 mph 0.01 in Rain Light Rain
10:35 PM 33.8 °F 22.8 °F 30.2 °F 87% 30.08 in 10.0 mi NNW 18.4 mph 24.2 mph 0.02 in Rain Light Rain
10:46 PM 33.8 °F 23.5 °F 30.2 °F 87% 30.07 in 5.0 mi NNW 16.1 mph - 0.02 in Snow Light Snow
10:53 PM 33.1 °F 23.9 °F 30.9 °F 92% 30.09 in 5.0 mi NNW 12.7 mph - 0.02 in Snow Light Snow
11:00 PM 33.8 °F 23.9 °F 30.2 °F 87% 30.08 in 5.0 mi NNW 15.0 mph - 0.00 in   Overcast
11:53 PM 33.1 °F 21.2 °F 30.0 °F 89% 30.10 in 9.0 mi NNW 20.7 mph - 0.00 in   Overcast